Time,TemperatureF,DewpointF,PressureIn,WindDirection,WindDirectionDegrees,WindSpeedMPH,WindSpeedGustMPH,Humidity,HourlyPrecipIn,Conditions,Clouds,dailyrainin,SoftwareType,DateUTC
2013-12-17 00:02:00,19.8,17.1,30.04,West,270,0.0,0.0,89,0.00,,,0.00,WUHU21623XXSP,2013-12-17 06:02:00,
2013-12-17 00:07:00,19.6,16.8,30.04,West,270,0.0,0.0,89,0.00,,,0.00,WUHU21623XXSP,2013-12-17 06:07:00,
2013-12-17 00:12:00,19.6,16.8,30.03,West,270,0.0,0.0,89,0.00,,,0.00,WUHU21623XXSP,2013-12-17 06:12:00,
2013-12-17 00:17:00,19.6,16.8,30.03,WNW,292,0.0,0.0,89,0.00,,,0.00,WUHU21623XXSP,2013-12-17 06:17:00,
2013-12-17 00:22:00,19.6,16.8,30.03,West,270,0.0,0.0,89,0.00,,,0.00,WUHU21623XXSP,2013-12-17 06:22:00,
2013-12-17 00:27:00,19.6,16.8,30.03,West,270,0.0,0.0,89,0.00,,,0.00,WUHU21623XXSP,2013-12-17 06:27:00,
2013-12-17 00:32:00,19.6,16.8,30.03,West,270,0.0,0.0,89,0.00,,,0.00,WUHU21623XXSP,2013-12-17 06:32:00,
2013-12-17 00:37:00,19.6,16.8,30.03,West,270,0.0,0.0,89,0.00,,,0.00,WUHU21623XXSP,2013-12-17 06:37:00,
2013-12-17 00:42:00,19.6,16.8,30.03,WSW,247,0.0,0.0,89,0.00,,,0.00,WUHU21623XXSP,2013-12-17 06:42:00,
2013-12-17 00:47:00,19.6,16.8,30.03,West,270,0.0,0.0,89,0.00,,,0.00,WUHU21623XXSP,2013-12-17 06:47:00,
2013-12-17 00:52:00,19.4,16.6,30.03,West,270,0.0,0.0,89,0.00,,,0.00,WUHU21623XXSP,2013-12-17 06:52:00,
2013-12-17 00:57:00,19.2,16.4,30.03,West,270,0.0,0.0,89,0.00,,,0.00,WUHU21623XXSP,2013-12-17 06:57:00,
2013-12-17 01:02:00,19.2,16.4,30.03,West,270,0.0,0.0,89,0.00,,,0.00,WUHU21623XXSP,2013-12-17 07:02:00,
2013-12-17 01:07:00,19.2,16.4,30.03,West,270,0.0,0.0,89,0.00,,,0.00,WUHU21623XXSP,2013-12-17 07:07:00,
2013-12-17 01:12:00,19.2,16.4,30.03,WNW,292,0.0,0.0,89,0.00,,,0.00,WUHU21623XXSP,2013-12-17 07:12:00,
2013-12-17 01:17:00,19.0,16.3,30.04,West,270,0.0,0.0,89,0.00,,,0.00,WUHU21623XXSP,2013-12-17 07:17:00,
2013-12-17 01:22:00,19.2,16.4,30.04,West,270,0.0,0.0,89,0.00,,,0.00,WUHU21623XXSP,2013-12-17 07:22:00,
2013-12-17 01:27:00,19.2,16.4,30.04,WSW,247,0.0,0.0,89,0.00,,,0.00,WUHU21623XXSP,2013-12-17 07:27:00,
2013-12-17 01:32:00,19.0,16.4,30.04,West,270,0.0,0.0,89,0.00,,,0.00,WUHU21623XXSP,2013-12-17 07:32:00,
2013-12-17 01:37:00,19.0,16.3,30.05,West,270,7.8,7.8,89,0.00,,,0.00,WUHU21623XXSP,2013-12-17 07:37:00,
2013-12-17 01:42:00,19.2,16.3,30.06,West,270,0.0,7.8,89,0.00,,,0.00,WUHU21623XXSP,2013-12-17 07:42:00,
2013-12-17 01:47:00,19.0,16.3,30.06,WSW,247,0.0,0.0,89,0.00,,,0.00,WUHU21623XXSP,2013-12-17 07:47:00,
2013-12-17 01:52:00,19.0,16.3,30.06,West,270,0.0,0.0,89,0.00,,,0.00,WUHU21623XXSP,2013-12-17 07:52:00,
2013-12-17 01:57:00,19.0,16.3,30.07,West,270,0.0,0.0,89,0.00,,,0.00,WUHU21623XXSP,2013-12-17 07:57:00,
2013-12-17 02:02:00,19.0,16.3,30.07,WSW,247,0.0,0.0,89,0.00,,,0.00,WUHU21623XXSP,2013-12-17 08:02:00,
2013-12-17 02:07:00,19.2,16.3,30.07,West,270,0.0,0.0,89,0.00,,,0.00,WUHU21623XXSP,2013-12-17 08:07:00,
2013-12-17 02:12:00,19.0,16.3,30.07,West,270,0.0,0.0,89,0.00,,,0.00,WUHU21623XXSP,2013-12-17 08:12:00,
2013-12-17 02:17:00,18.9,16.3,30.06,West,270,2.7,2.7,89,0.00,,,0.00,WUHU21623XXSP,2013-12-17 08:17:00,
2013-12-17 02:22:00,18.7,15.9,30.06,West,270,7.6,7.6,89,0.00,,,0.00,WUHU21623XXSP,2013-12-17 08:22:00,
2013-12-17 02:27:00,18.7,15.9,30.07,West,270,0.7,7.6,89,0.00,,,0.00,WUHU21623XXSP,2013-12-17 08:27:00,
2013-12-17 02:32:00,18.7,15.7,30.06,WNW,292,0.0,2.7,89,0.00,,,0.00,WUHU21623XXSP,2013-12-17 08:32:00,
2013-12-17 02:37:00,18.7,15.9,30.06,West,270,0.0,2.7,89,0.00,,,0.00,WUHU21623XXSP,2013-12-17 08:37:00,
2013-12-17 02:42:00,18.7,15.9,30.06,West,270,0.0,0.0,89,0.00,,,0.00,WUHU21623XXSP,2013-12-17 08:42:00,
2013-12-17 02:47:00,18.9,16.1,30.06,WNW,292,0.0,0.0,89,0.00,,,0.00,WUHU21623XXSP,2013-12-17 08:47:00,
2013-12-17 02:52:00,19.0,16.3,30.06,WNW,292,0.0,5.4,89,0.00,,,0.00,WUHU21623XXSP,2013-12-17 08:52:00,
2013-12-17 02:57:00,19.2,16.4,30.05,WNW,292,5.4,5.4,89,0.00,,,0.00,WUHU21623XXSP,2013-12-17 08:57:00,
2013-12-17 03:02:00,19.2,16.4,30.05,WNW,292,5.4,5.4,89,0.00,,,0.00,WUHU21623XXSP,2013-12-17 09:02:00,
2013-12-17 03:07:00,19.4,16.4,30.05,WNW,292,5.4,5.4,89,0.00,,,0.00,WUHU21623XXSP,2013-12-17 09:07:00,
2013-12-17 03:12:00,19.6,16.8,30.06,West,270,0.0,5.4,89,0.00,,,0.00,WUHU21623XXSP,2013-12-17 09:12:00,
2013-12-17 03:17:00,19.6,16.8,30.06,WSW,247,0.0,0.0,89,0.00,,,0.00,WUHU21623XXSP,2013-12-17 09:17:00,
2013-12-17 03:22:00,19.6,16.8,30.06,West,270,0.0,0.0,89,0.00,,,0.00,WUHU21623XXSP,2013-12-17 09:22:00,
2013-12-17 03:27:00,19.6,16.8,30.06,West,270,0.0,0.0,89,0.00,,,0.00,WUHU21623XXSP,2013-12-17 09:27:00,
2013-12-17 03:32:00,19.6,16.8,30.06,WSW,247,0.0,0.0,89,0.00,,,0.00,WUHU21623XXSP,2013-12-17 09:32:00,
2013-12-17 03:37:00,19.6,16.8,30.06,West,270,0.0,0.0,89,0.00,,,0.00,WUHU21623XXSP,2013-12-17 09:37:00,
2013-12-17 03:42:00,19.6,16.8,30.06,WNW,292,0.0,0.0,89,0.00,,,0.00,WUHU21623XXSP,2013-12-17 09:42:00,
2013-12-17 03:47:00,19.6,16.8,30.06,WSW,247,0.0,0.0,89,0.00,,,0.00,WUHU21623XXSP,2013-12-17 09:47:00,
2013-12-17 03:52:00,19.6,16.8,30.05,West,270,2.5,2.5,89,0.00,,,0.00,WUHU21623XXSP,2013-12-17 09:52:00,
2013-12-17 03:57:00,19.6,16.8,30.04,West,270,0.0,2.5,89,0.00,,,0.00,WUHU21623XXSP,2013-12-17 09:57:00,
2013-12-17 04:02:00,19.6,16.8,30.05,West,270,0.0,0.0,89,0.00,,,0.00,WUHU21623XXSP,2013-12-17 10:02:00,
2013-12-17 04:07:00,19.6,16.8,30.04,West,270,0.0,0.0,89,0.00,,,0.00,WUHU21623XXSP,2013-12-17 10:07:00,
2013-12-17 04:12:00,19.6,16.8,30.04,West,270,0.0,0.0,89,0.00,,,0.00,WUHU21623XXSP,2013-12-17 10:12:00,
2013-12-17 04:17:00,19.6,16.8,30.04,West,270,0.0,0.0,89,0.00,,,0.00,WUHU21623XXSP,2013-12-17 10:17:00,
2013-12-17 04:22:00,19.8,17.0,30.04,West,270,0.0,2.2,89,0.00,,,0.00,WUHU21623XXSP,2013-12-17 10:22:00,
2013-12-17 04:27:00,19.8,17.0,30.04,West,270,0.0,2.2,89,0.00,,,0.00,WUHU21623XXSP,2013-12-17 10:27:00,
2013-12-17 04:32:00,19.8,17.0,30.05,WNW,292,0.0,0.0,89,0.00,,,0.00,WUHU21623XXSP,2013-12-17 10:32:00,
2013-12-17 04:37:00,19.9,17.1,30.05,West,270,0.0,7.2,89,0.00,,,0.00,WUHU21623XXSP,2013-12-17 10:37:00,
2013-12-17 04:42:00,19.9,17.1,30.04,WNW,292,1.6,7.2,89,0.00,,,0.00,WUHU21623XXSP,2013-12-17 10:42:00,
2013-12-17 04:47:00,19.9,17.1,30.04,West,270,0.0,1.6,89,0.00,,,0.00,WUHU21623XXSP,2013-12-17 10:47:00,
2013-12-17 04:52:00,19.8,17.0,30.04,WNW,292,0.0,8.3,89,0.00,,,0.00,WUHU21623XXSP,2013-12-17 10:52:00,
2013-12-17 04:57:00,19.8,17.1,30.04,WNW,292,5.6,8.3,89,0.00,,,0.00,WUHU21623XXSP,2013-12-17 10:57:00,
2013-12-17 05:02:00,19.9,17.0,30.05,West,270,0.0,5.6,89,0.00,,,0.00,WUHU21623XXSP,2013-12-17 11:02:00,
2013-12-17 05:07:00,19.9,17.1,30.04,WNW,292,0.0,0.0,89,0.00,,,0.00,WUHU21623XXSP,2013-12-17 11:07:00,
2013-12-17 05:12:00,19.9,17.1,30.05,West,270,0.0,0.0,89,0.00,,,0.00,WUHU21623XXSP,2013-12-17 11:12:00,
2013-12-17 05:17:00,19.9,17.1,30.05,WSW,247,1.1,1.1,89,0.00,,,0.00,WUHU21623XXSP,2013-12-17 11:17:00,
2013-12-17 05:22:00,19.9,17.1,30.06,West,270,0.0,1.1,89,0.00,,,0.00,WUHU21623XXSP,2013-12-17 11:22:00,
2013-12-17 05:27:00,19.9,17.4,30.06,WNW,292,0.0,0.0,90,0.00,,,0.00,WUHU21623XXSP,2013-12-17 11:27:00,
2013-12-17 05:32:00,20.1,17.6,30.07,West,270,0.0,0.0,90,0.00,,,0.00,WUHU21623XXSP,2013-12-17 11:32:00,
2013-12-17 05:37:00,20.1,17.6,30.07,West,270,0.0,0.0,90,0.00,,,0.00,WUHU21623XXSP,2013-12-17 11:37:00,
2013-12-17 05:42:00,20.1,17.6,30.06,West,270,0.0,0.0,90,0.00,,,0.00,WUHU21623XXSP,2013-12-17 11:42:00,
2013-12-17 05:47:00,20.1,17.6,30.06,West,270,0.0,0.0,90,0.00,,,0.00,WUHU21623XXSP,2013-12-17 11:47:00,
2013-12-17 05:52:00,20.3,17.8,30.06,WSW,247,0.0,0.0,90,0.00,,,0.00,WUHU21623XXSP,2013-12-17 11:52:00,
2013-12-17 05:57:00,20.1,17.6,30.06,WSW,247,0.0,0.0,90,0.00,,,0.00,WUHU21623XXSP,2013-12-17 11:57:00,
2013-12-17 06:02:00,20.5,18.0,30.05,West,270,0.0,0.0,90,0.00,,,0.00,WUHU21623XXSP,2013-12-17 12:02:00,
2013-12-17 06:07:00,20.5,18.0,30.05,West,270,0.0,0.0,90,0.00,,,0.00,WUHU21623XXSP,2013-12-17 12:07:00,
2013-12-17 06:12:00,20.5,18.0,30.05,WSW,247,0.0,0.0,90,0.00,,,0.00,WUHU21623XXSP,2013-12-17 12:12:00,
2013-12-17 06:17:00,20.5,18.0,30.05,WSW,247,7.8,7.8,90,0.00,,,0.00,WUHU21623XXSP,2013-12-17 12:17:00,
2013-12-17 06:22:00,20.5,18.0,30.05,WSW,247,0.0,7.8,90,0.00,,,0.00,WUHU21623XXSP,2013-12-17 12:22:00,
2013-12-17 06:27:00,20.5,18.0,30.05,West,270,2.7,2.7,90,0.00,,,0.00,WUHU21623XXSP,2013-12-17 12:27:00,
2013-12-17 06:32:00,20.5,18.0,30.05,WNW,292,0.0,2.7,90,0.00,,,0.00,WUHU21623XXSP,2013-12-17 12:32:00,
2013-12-17 06:37:00,20.5,18.0,30.04,WSW,247,0.0,0.0,90,0.00,,,0.00,WUHU21623XXSP,2013-12-17 12:37:00,
2013-12-17 06:42:00,20.5,18.0,30.04,WSW,247,6.3,6.3,90,0.00,,,0.00,WUHU21623XXSP,2013-12-17 12:42:00,
2013-12-17 06:47:00,20.5,18.0,30.04,WSW,247,0.0,7.2,90,0.00,,,0.00,WUHU21623XXSP,2013-12-17 12:47:00,
2013-12-17 06:52:00,20.5,18.0,30.04,SW,225,0.7,7.2,90,0.00,,,0.00,WUHU21623XXSP,2013-12-17 12:52:00,
2013-12-17 06:57:00,20.5,18.0,30.04,WSW,247,0.0,0.7,90,0.00,,,0.00,WUHU21623XXSP,2013-12-17 12:57:00,
2013-12-17 07:02:00,20.5,18.0,30.04,SW,225,6.9,6.9,90,0.00,,,0.00,WUHU21623XXSP,2013-12-17 13:02:00,
2013-12-17 07:08:00,20.3,17.8,30.04,South,180,0.0,6.9,90,0.00,,,0.00,WUHU21623XXSP,2013-12-17 13:08:00,
2013-12-17 07:13:00,20.5,18.0,30.03,WSW,247,4.7,4.7,90,0.00,,,0.00,WUHU21623XXSP,2013-12-17 13:13:00,
2013-12-17 07:18:00,20.3,17.8,30.03,SW,225,0.0,4.7,90,0.00,,,0.00,WUHU21623XXSP,2013-12-17 13:18:00,
2013-12-17 07:23:00,20.3,17.8,30.03,WNW,292,3.8,3.8,90,0.00,,,0.00,WUHU21623XXSP,2013-12-17 13:23:00,
2013-12-17 07:28:00,20.3,17.8,30.04,SW,225,0.0,6.7,90,0.00,,,0.00,WUHU21623XXSP,2013-12-17 13:28:00,
2013-12-17 07:33:00,20.3,17.8,30.04,WSW,247,2.9,6.7,90,0.00,,,0.00,WUHU21623XXSP,2013-12-17 13:33:00,
2013-12-17 07:38:00,20.5,18.0,30.04,WSW,247,0.0,7.4,90,0.00,,,0.00,WUHU21623XXSP,2013-12-17 13:38:00,
2013-12-17 07:43:00,20.5,18.0,30.04,WSW,247,0.0,7.4,90,0.00,,,0.00,WUHU21623XXSP,2013-12-17 13:43:00,
2013-12-17 07:48:00,20.8,18.3,30.04,SSW,202,12.8,12.8,90,0.00,,,0.00,WUHU21623XXSP,2013-12-17 13:48:00,
2013-12-17 07:53:00,20.8,18.3,30.03,South,180,5.6,12.8,90,0.00,,,0.00,WUHU21623XXSP,2013-12-17 13:53:00,
2013-12-17 07:58:00,20.8,18.3,30.03,SSW,202,6.3,10.3,90,0.00,,,0.00,WUHU21623XXSP,2013-12-17 13:58:00,
2013-12-17 08:03:00,21.0,18.5,30.03,SW,225,4.0,10.3,90,0.00,,,0.00,WUHU21623XXSP,2013-12-17 14:03:00,
2013-12-17 08:08:00,21.0,18.5,30.02,WSW,247,6.5,6.5,90,0.00,,,0.00,WUHU21623XXSP,2013-12-17 14:08:00,
2013-12-17 08:13:00,21.0,18.5,30.02,WSW,247,0.0,6.5,90,0.00,,,0.00,WUHU21623XXSP,2013-12-17 14:13:00,
2013-12-17 08:18:00,21.4,18.9,30.02,SW,225,0.9,6.5,90,0.00,,,0.00,WUHU21623XXSP,2013-12-17 14:18:00,
2013-12-17 08:23:00,21.4,18.9,30.02,SW,225,10.7,10.7,90,0.00,,,0.00,WUHU21623XXSP,2013-12-17 14:23:00,
2013-12-17 08:28:00,21.7,19.2,30.02,West,270,0.0,10.7,90,0.00,,,0.00,WUHU21623XXSP,2013-12-17 14:28:00,
2013-12-17 08:33:00,21.7,19.2,30.02,SW,225,0.4,7.6,90,0.00,,,0.00,WUHU21623XXSP,2013-12-17 14:33:00,
2013-12-17 08:38:00,21.9,19.4,30.02,WSW,247,11.6,11.6,90,0.00,,,0.00,WUHU21623XXSP,2013-12-17 14:38:00,
2013-12-17 08:43:00,22.1,19.6,30.02,SSW,202,7.8,11.6,90,0.00,,,0.00,WUHU21623XXSP,2013-12-17 14:43:00,
2013-12-17 08:48:00,22.3,19.8,30.03,South,180,4.3,8.3,90,0.00,,,0.00,WUHU21623XXSP,2013-12-17 14:48:00,
2013-12-17 08:53:00,22.1,19.6,30.03,SSW,202,6.0,7.8,90,0.00,,,0.00,WUHU21623XXSP,2013-12-17 14:53:00,
2013-12-17 08:58:00,22.3,19.8,30.03,WSW,247,6.7,6.7,90,0.00,,,0.00,WUHU21623XXSP,2013-12-17 14:58:00,
2013-12-17 09:03:00,22.3,19.8,30.03,WSW,247,6.7,6.7,90,0.00,,,0.00,WUHU21623XXSP,2013-12-17 15:03:00,
2013-12-17 09:08:00,22.5,19.9,30.03,SSW,202,7.6,7.6,90,0.00,,,0.00,WUHU21623XXSP,2013-12-17 15:08:00,
2013-12-17 09:13:00,22.6,20.1,30.03,SSW,202,8.5,8.5,90,0.00,,,0.00,WUHU21623XXSP,2013-12-17 15:13:00,
2013-12-17 09:18:00,22.8,20.3,30.03,WNW,292,2.9,8.5,90,0.00,,,0.00,WUHU21623XXSP,2013-12-17 15:18:00,
2013-12-17 09:23:00,22.8,20.3,30.03,SW,225,5.8,8.5,90,0.00,,,0.00,WUHU21623XXSP,2013-12-17 15:23:00,
2013-12-17 09:28:00,22.8,20.3,30.03,SSW,202,13.6,13.6,90,0.00,,,0.00,WUHU21623XXSP,2013-12-17 15:28:00,
2013-12-17 09:33:00,22.8,20.3,30.03,South,180,8.1,13.6,90,0.00,,,0.00,WUHU21623XXSP,2013-12-17 15:33:00,
2013-12-17 09:38:00,23.2,20.3,30.03,SSE,157,7.2,13.6,90,0.00,,,0.00,WUHU21623XXSP,2013-12-17 15:38:00,
2013-12-17 09:43:00,23.9,21.4,30.03,WSW,247,7.4,7.4,90,0.00,,,0.00,WUHU21623XXSP,2013-12-17 15:43:00,
2013-12-17 09:48:00,24.1,21.4,30.03,WSW,247,0.0,7.6,90,0.00,,,0.00,WUHU21623XXSP,2013-12-17 15:48:00,
2013-12-17 09:53:00,24.6,22.1,30.03,West,270,8.5,8.5,90,0.00,,,0.00,WUHU21623XXSP,2013-12-17 15:53:00,
2013-12-17 09:58:00,25.0,22.2,30.03,WSW,247,0.2,8.5,89,0.00,,,0.00,WUHU21623XXSP,2013-12-17 15:58:00,
2013-12-17 10:03:00,25.2,22.2,30.02,WSW,247,0.0,6.3,89,0.00,,,0.00,WUHU21623XXSP,2013-12-17 16:03:00,
2013-12-17 10:08:00,25.2,22.2,30.03,SW,225,8.3,8.3,89,0.00,,,0.00,WUHU21623XXSP,2013-12-17 16:08:00,
2013-12-17 10:13:00,25.2,22.4,30.03,West,270,5.6,8.3,89,0.00,,,0.00,WUHU21623XXSP,2013-12-17 16:13:00,
2013-12-17 10:18:00,25.2,22.4,30.03,WSW,247,0.0,6.9,89,0.00,,,0.00,WUHU21623XXSP,2013-12-17 16:18:00,
2013-12-17 10:23:00,25.3,22.5,30.03,WSW,247,6.9,8.3,89,0.00,,,0.00,WUHU21623XXSP,2013-12-17 16:23:00,
2013-12-17 10:28:00,25.5,22.4,30.04,WSW,247,6.0,9.2,88,0.00,,,0.00,WUHU21623XXSP,2013-12-17 16:28:00,
2013-12-17 10:33:00,25.9,22.6,30.04,WSW,247,3.1,9.2,88,0.00,,,0.00,WUHU21623XXSP,2013-12-17 16:33:00,
2013-12-17 10:38:00,25.9,22.8,30.03,West,270,6.3,9.4,88,0.00,,,0.00,WUHU21623XXSP,2013-12-17 16:38:00,
2013-12-17 10:43:00,26.1,22.7,30.03,WSW,247,5.6,9.4,87,0.00,,,0.00,WUHU21623XXSP,2013-12-17 16:43:00,
2013-12-17 10:48:00,26.1,22.7,30.02,WNW,292,8.1,8.1,87,0.00,,,0.00,WUHU21623XXSP,2013-12-17 16:48:00,
2013-12-17 10:53:00,26.4,23.0,30.02,West,270,6.9,8.1,87,0.00,,,0.00,WUHU21623XXSP,2013-12-17 16:53:00,
2013-12-17 10:58:00,26.4,23.2,30.02,West,270,5.1,6.9,87,0.00,,,0.00,WUHU21623XXSP,2013-12-17 16:58:00,
2013-12-17 11:03:00,26.8,23.4,30.01,WSW,247,4.5,5.1,87,0.00,,,0.00,WUHU21623XXSP,2013-12-17 17:03:00,
2013-12-17 11:08:00,27.5,23.8,30.01,West,270,3.4,5.1,87,0.00,,,0.00,WUHU21623XXSP,2013-12-17 17:08:00,
2013-12-17 11:13:00,28.2,24.8,30.01,WSW,247,6.9,6.9,87,0.00,,,0.00,WUHU21623XXSP,2013-12-17 17:13:00,
2013-12-17 11:18:00,28.2,24.8,30.01,SW,225,0.0,6.9,87,0.00,,,0.00,WUHU21623XXSP,2013-12-17 17:18:00,
2013-12-17 11:23:00,28.2,24.8,30.01,West,270,5.1,6.9,87,0.00,,,0.00,WUHU21623XXSP,2013-12-17 17:23:00,
2013-12-17 11:28:00,28.9,25.6,30.00,West,270,0.0,7.2,87,0.00,,,0.00,WUHU21623XXSP,2013-12-17 17:28:00,
2013-12-17 11:33:00,29.5,25.8,30.00,WSW,247,7.8,7.8,86,0.00,,,0.00,WUHU21623XXSP,2013-12-17 17:33:00,
2013-12-17 11:38:00,30.0,26.2,30.00,West,270,0.0,7.8,86,0.00,,,0.00,WUHU21623XXSP,2013-12-17 17:38:00,
2013-12-17 11:43:00,30.4,26.3,30.00,West,270,3.8,3.8,86,0.00,,,0.00,WUHU21623XXSP,2013-12-17 17:43:00,
2013-12-17 11:48:00,30.4,26.7,29.99,West,270,5.8,5.8,85,0.00,,,0.00,WUHU21623XXSP,2013-12-17 17:48:00,
2013-12-17 11:53:00,30.7,26.8,29.99,SW,225,4.3,5.8,85,0.00,,,0.00,WUHU21623XXSP,2013-12-17 17:53:00,
2013-12-17 11:58:00,30.9,26.8,29.98,WSW,247,7.6,7.6,85,0.00,,,0.00,WUHU21623XXSP,2013-12-17 17:58:00,
2013-12-17 12:03:00,31.1,27.1,29.98,West,270,0.0,7.6,85,0.00,,,0.00,WUHU21623XXSP,2013-12-17 18:03:00,
2013-12-17 12:08:00,31.1,26.9,29.98,NW,315,0.0,0.0,84,0.00,,,0.00,WUHU21623XXSP,2013-12-17 18:08:00,
2013-12-17 12:13:00,31.3,27.0,29.98,West,270,3.1,3.1,84,0.00,,,0.00,WUHU21623XXSP,2013-12-17 18:13:00,
2013-12-17 12:18:00,31.6,27.4,29.98,WSW,247,0.0,3.1,84,0.00,,,0.00,WUHU21623XXSP,2013-12-17 18:18:00,
2013-12-17 12:23:00,31.8,27.6,29.98,WSW,247,0.0,3.1,84,0.00,,,0.00,WUHU21623XXSP,2013-12-17 18:23:00,
2013-12-17 12:28:00,31.8,27.9,29.98,West,270,0.2,6.0,84,0.00,,,0.00,WUHU21623XXSP,2013-12-17 18:28:00,
2013-12-17 12:33:00,31.3,26.7,29.97,West,270,6.5,6.5,83,0.00,,,0.00,WUHU21623XXSP,2013-12-17 18:33:00,
2013-12-17 12:38:00,31.3,26.6,29.97,West,270,2.7,6.5,83,0.00,,,0.00,WUHU21623XXSP,2013-12-17 18:38:00,
2013-12-17 12:43:00,31.6,26.9,29.97,WSW,247,0.0,2.7,84,0.00,,,0.00,WUHU21623XXSP,2013-12-17 18:43:00,
2013-12-17 12:48:00,31.6,27.1,29.97,WSW,247,7.6,7.6,83,0.00,,,0.00,WUHU21623XXSP,2013-12-17 18:48:00,
2013-12-17 12:53:00,30.9,26.4,29.97,West,270,0.0,7.6,83,0.00,,,0.00,WUHU21623XXSP,2013-12-17 18:53:00,
2013-12-17 12:58:00,30.9,26.4,29.97,West,270,0.0,6.7,83,0.00,,,0.00,WUHU21623XXSP,2013-12-17 18:58:00,
2013-12-17 13:03:00,30.9,26.4,29.97,West,270,0.0,0.0,83,0.00,,,0.00,WUHU21623XXSP,2013-12-17 19:03:00,
2013-12-17 13:08:00,31.1,26.6,29.97,West,270,0.0,0.0,83,0.00,,,0.00,WUHU21623XXSP,2013-12-17 19:08:00,
2013-12-17 13:13:00,31.5,26.7,29.97,WNW,292,0.0,0.0,83,0.00,,,0.00,WUHU21623XXSP,2013-12-17 19:13:00,
2013-12-17 13:18:00,31.8,27.1,29.97,West,270,5.4,5.4,83,0.00,,,0.00,WUHU21623XXSP,2013-12-17 19:18:00,
2013-12-17 13:23:00,31.8,27.0,29.97,West,270,3.6,5.4,82,0.00,,,0.00,WUHU21623XXSP,2013-12-17 19:23:00,
2013-12-17 13:28:00,31.8,27.0,29.97,West,270,0.0,3.6,82,0.00,,,0.00,WUHU21623XXSP,2013-12-17 19:28:00,
2013-12-17 13:33:00,31.8,27.2,29.97,West,270,0.0,0.0,82,0.00,,,0.00,WUHU21623XXSP,2013-12-17 19:33:00,
2013-12-17 13:38:00,32.4,27.3,29.97,West,270,0.0,6.3,82,0.00,,,0.00,WUHU21623XXSP,2013-12-17 19:38:00,
2013-12-17 13:43:00,32.4,27.2,29.97,West,270,0.0,6.3,81,0.00,,,0.00,WUHU21623XXSP,2013-12-17 19:43:00,
2013-12-17 13:48:00,32.5,27.4,29.97,West,270,0.0,4.0,81,0.00,,,0.00,WUHU21623XXSP,2013-12-17 19:48:00,
2013-12-17 13:53:00,32.5,27.4,29.98,West,270,0.0,6.5,81,0.00,,,0.00,WUHU21623XXSP,2013-12-17 19:53:00,
2013-12-17 13:58:00,32.4,27.2,29.98,WSW,247,3.8,6.5,81,0.00,,,0.00,WUHU21623XXSP,2013-12-17 19:58:00,
2013-12-17 14:03:00,32.4,27.1,29.98,West,270,0.0,3.8,81,0.00,,,0.00,WUHU21623XXSP,2013-12-17 20:03:00,
2013-12-17 14:08:00,32.4,27.2,29.98,West,270,0.0,0.0,80,0.02,,,0.02,WUHU21623XXSP,2013-12-17 20:08:00,
2013-12-17 14:13:00,32.2,27.2,29.97,West,270,0.0,0.0,81,0.02,,,0.02,WUHU21623XXSP,2013-12-17 20:13:00,
2013-12-17 14:18:00,32.2,27.1,29.97,West,270,0.0,0.0,81,0.02,,,0.02,WUHU21623XXSP,2013-12-17 20:18:00,
2013-12-17 14:23:00,32.2,27.2,29.98,West,270,3.1,3.6,81,0.02,,,0.02,WUHU21623XXSP,2013-12-17 20:23:00,
2013-12-17 14:28:00,32.2,27.1,29.98,West,270,2.0,3.6,81,0.02,,,0.02,WUHU21623XXSP,2013-12-17 20:28:00,
2013-12-17 14:33:00,32.4,27.2,29.98,West,270,0.2,2.0,81,0.02,,,0.02,WUHU21623XXSP,2013-12-17 20:33:00,
2013-12-17 14:38:00,32.4,27.2,29.98,West,270,0.0,7.2,81,0.02,,,0.02,WUHU21623XXSP,2013-12-17 20:38:00,
2013-12-17 14:43:00,32.4,27.2,29.98,West,270,0.0,7.2,81,0.02,,,0.02,WUHU21623XXSP,2013-12-17 20:43:00,
2013-12-17 14:48:00,32.2,27.1,29.98,West,270,0.0,0.0,81,0.02,,,0.02,WUHU21623XXSP,2013-12-17 20:48:00,
2013-12-17 14:53:00,32.2,27.1,29.98,West,270,0.0,4.0,81,0.02,,,0.02,WUHU21623XXSP,2013-12-17 20:53:00,
2013-12-17 14:58:00,32.2,27.1,29.99,SW,225,11.9,11.9,81,0.02,,,0.02,WUHU21623XXSP,2013-12-17 20:58:00,
2013-12-17 15:03:00,32.2,27.1,29.98,West,270,5.4,11.9,81,0.02,,,0.02,WUHU21623XXSP,2013-12-17 21:03:00,
2013-12-17 15:08:00,32.2,27.1,29.99,West,270,0.0,5.4,81,0.00,,,0.02,WUHU21623XXSP,2013-12-17 21:08:00,
2013-12-17 15:14:00,32.2,27.1,29.99,West,270,0.0,0.0,81,0.00,,,0.02,WUHU21623XXSP,2013-12-17 21:14:00,
2013-12-17 15:19:00,32.2,27.1,29.99,WNW,292,8.5,8.5,81,0.00,,,0.02,WUHU21623XXSP,2013-12-17 21:19:00,
2013-12-17 15:24:00,32.2,27.1,30.00,WSW,247,6.9,8.5,81,0.00,,,0.02,WUHU21623XXSP,2013-12-17 21:24:00,
2013-12-17 15:29:00,32.2,27.1,30.00,WSW,247,5.1,6.9,81,0.00,,,0.02,WUHU21623XXSP,2013-12-17 21:29:00,
2013-12-17 15:34:00,32.0,26.9,30.00,West,270,4.5,5.1,81,0.00,,,0.02,WUHU21623XXSP,2013-12-17 21:34:00,
2013-12-17 15:39:00,31.8,26.7,30.00,West,270,2.2,4.5,81,0.00,,,0.02,WUHU21623XXSP,2013-12-17 21:39:00,
2013-12-17 15:44:00,31.8,26.7,30.00,WSW,247,0.0,2.2,81,0.00,,,0.02,WUHU21623XXSP,2013-12-17 21:44:00,
2013-12-17 15:49:00,31.8,26.7,30.00,WNW,292,4.0,4.0,81,0.00,,,0.02,WUHU21623XXSP,2013-12-17 21:49:00,
2013-12-17 15:54:00,31.6,26.5,30.00,WSW,247,0.0,4.0,81,0.00,,,0.02,WUHU21623XXSP,2013-12-17 21:54:00,
2013-12-17 15:59:00,31.3,26.2,30.01,WSW,247,0.0,0.0,81,0.00,,,0.02,WUHU21623XXSP,2013-12-17 21:59:00,
2013-12-17 16:04:00,31.3,26.2,30.01,West,270,0.0,0.0,81,0.00,,,0.02,WUHU21623XXSP,2013-12-17 22:04:00,
2013-12-17 16:09:00,30.9,25.8,30.01,WSW,247,0.0,0.0,81,0.00,,,0.02,WUHU21623XXSP,2013-12-17 22:09:00,
2013-12-17 16:14:00,30.7,25.8,30.01,West,270,0.0,0.0,81,0.00,,,0.02,WUHU21623XXSP,2013-12-17 22:14:00,
2013-12-17 16:16:00,30.9,25.6,30.01,West,270,0.0,0.0,81,0.00,,,0.02,WUHU21623XXSP,2013-12-17 22:16:00,
2013-12-17 16:21:00,30.9,25.8,30.01,West,270,0.0,0.0,81,0.00,,,0.02,WUHU21623XXSP,2013-12-17 22:21:00,
2013-12-17 16:26:00,30.4,25.3,30.01,WSW,247,0.0,0.0,81,0.00,,,0.02,WUHU21623XXSP,2013-12-17 22:26:00,
2013-12-17 16:31:00,30.2,24.9,30.01,West,270,1.6,1.6,81,0.00,,,0.02,WUHU21623XXSP,2013-12-17 22:31:00,
2013-12-17 16:36:00,30.0,24.6,30.01,West,270,6.0,6.0,80,0.00,,,0.02,WUHU21623XXSP,2013-12-17 22:36:00,
2013-12-17 16:41:00,30.0,24.3,30.01,West,270,0.0,6.0,79,0.00,,,0.02,WUHU21623XXSP,2013-12-17 22:41:00,
2013-12-17 16:46:00,30.0,24.3,30.01,WSW,247,0.0,6.0,79,0.00,,,0.02,WUHU21623XXSP,2013-12-17 22:46:00,
2013-12-17 16:51:00,30.0,24.0,30.02,West,270,0.0,0.0,78,0.00,,,0.02,WUHU21623XXSP,2013-12-17 22:51:00,
2013-12-17 16:56:00,29.8,23.8,30.02,West,270,0.0,0.0,78,0.00,,,0.02,WUHU21623XXSP,2013-12-17 22:56:00,
2013-12-17 17:01:00,29.8,23.5,30.02,West,270,0.0,0.0,77,0.00,,,0.02,WUHU21623XXSP,2013-12-17 23:01:00,
2013-12-17 17:06:00,30.0,23.5,30.02,West,270,0.0,0.0,76,0.00,,,0.02,WUHU21623XXSP,2013-12-17 23:06:00,
2013-12-17 17:11:00,30.4,23.4,30.03,West,270,6.3,7.2,75,0.00,,,0.02,WUHU21623XXSP,2013-12-17 23:11:00,
2013-12-17 17:16:00,30.4,23.0,30.03,West,270,0.0,7.2,74,0.00,,,0.02,WUHU21623XXSP,2013-12-17 23:16:00,
2013-12-17 17:21:00,30.4,23.0,30.03,West,270,0.7,7.6,74,0.00,,,0.02,WUHU21623XXSP,2013-12-17 23:21:00,
2013-12-17 17:26:00,30.4,22.7,30.03,West,270,0.0,7.6,73,0.00,,,0.02,WUHU21623XXSP,2013-12-17 23:26:00,
2013-12-17 17:31:00,30.0,22.5,30.03,WNW,292,0.0,0.0,73,0.00,,,0.02,WUHU21623XXSP,2013-12-17 23:31:00,
2013-12-17 17:36:00,30.0,22.4,30.03,West,270,6.0,6.0,73,0.00,,,0.02,WUHU21623XXSP,2013-12-17 23:36:00,
2013-12-17 17:41:00,30.0,22.4,30.04,West,270,0.0,6.0,73,0.00,,,0.02,WUHU21623XXSP,2013-12-17 23:41:00,
2013-12-17 17:46:00,29.8,22.4,30.04,West,270,4.0,4.5,73,0.00,,,0.02,WUHU21623XXSP,2013-12-17 23:46:00,
2013-12-17 17:51:00,29.8,22.2,30.04,West,270,6.0,7.4,73,0.00,,,0.02,WUHU21623XXSP,2013-12-17 23:51:00,
2013-12-17 17:56:00,29.5,22.0,30.04,West,270,0.0,7.4,73,0.00,,,0.02,WUHU21623XXSP,2013-12-17 23:56:00,
2013-12-17 18:01:00,29.3,22.0,30.04,West,270,0.0,0.9,74,0.00,,,0.02,WUHU21623XXSP,2013-12-18 00:01:00,
2013-12-17 18:06:00,29.1,22.0,30.05,West,270,0.0,0.9,74,0.00,,,0.02,WUHU21623XXSP,2013-12-18 00:06:00,
2013-12-17 18:11:00,28.9,21.8,30.05,West,270,0.0,0.0,74,0.00,,,0.02,WUHU21623XXSP,2013-12-18 00:11:00,
2013-12-17 18:16:00,28.9,21.7,30.05,West,270,0.0,0.0,74,0.00,,,0.02,WUHU21623XXSP,2013-12-18 00:16:00,
2013-12-17 18:21:00,28.8,21.5,30.06,West,270,0.0,0.0,74,0.00,,,0.02,WUHU21623XXSP,2013-12-18 00:21:00,
2013-12-17 18:26:00,28.6,21.3,30.05,West,270,5.4,5.6,74,0.00,,,0.02,WUHU21623XXSP,2013-12-18 00:26:00,
2013-12-17 18:31:00,28.6,21.3,30.05,West,270,0.0,5.6,74,0.00,,,0.02,WUHU21623XXSP,2013-12-18 00:31:00,
2013-12-17 18:36:00,28.6,21.3,30.05,West,270,0.0,0.0,74,0.00,,,0.02,WUHU21623XXSP,2013-12-18 00:36:00,
2013-12-17 18:41:00,28.6,21.3,30.06,West,270,0.2,0.2,73,0.00,,,0.02,WUHU21623XXSP,2013-12-18 00:41:00,
2013-12-17 18:46:00,28.6,21.0,30.06,West,270,0.0,0.2,73,0.00,,,0.02,WUHU21623XXSP,2013-12-18 00:46:00,
2013-12-17 18:51:00,28.8,20.7,30.06,West,270,0.0,0.2,72,0.00,,,0.02,WUHU21623XXSP,2013-12-18 00:51:00,
2013-12-17 18:56:00,28.6,20.7,30.06,West,270,0.0,8.1,72,0.00,,,0.02,WUHU21623XXSP,2013-12-18 00:56:00,
2013-12-17 19:01:00,28.6,20.7,30.06,WSW,247,0.0,8.1,72,0.00,,,0.02,WUHU21623XXSP,2013-12-18 01:01:00,
2013-12-17 19:06:00,28.2,20.4,30.06,WSW,247,0.0,3.8,72,0.00,,,0.02,WUHU21623XXSP,2013-12-18 01:06:00,
2013-12-17 19:11:00,28.2,20.4,30.06,West,270,0.0,4.3,72,0.00,,,0.02,WUHU21623XXSP,2013-12-18 01:11:00,
2013-12-17 19:16:00,28.0,20.2,30.06,West,270,6.3,6.3,72,0.00,,,0.02,WUHU21623XXSP,2013-12-18 01:16:00,
2013-12-17 19:21:00,28.0,20.2,30.07,West,270,4.7,6.3,72,0.00,,,0.02,WUHU21623XXSP,2013-12-18 01:21:00,
2013-12-17 19:26:00,28.0,20.5,30.07,West,270,0.0,4.7,73,0.00,,,0.02,WUHU21623XXSP,2013-12-18 01:26:00,
2013-12-17 19:31:00,28.0,20.5,30.07,West,270,1.1,1.6,73,0.00,,,0.02,WUHU21623XXSP,2013-12-18 01:31:00,
2013-12-17 19:36:00,28.2,20.7,30.07,WNW,292,0.0,1.1,73,0.00,,,0.02,WUHU21623XXSP,2013-12-18 01:36:00,
2013-12-17 19:41:00,28.2,20.7,30.07,West,270,0.0,0.0,74,0.00,,,0.02,WUHU21623XXSP,2013-12-18 01:41:00,
2013-12-17 19:46:00,28.2,20.7,30.07,WNW,292,4.5,4.5,73,0.00,,,0.02,WUHU21623XXSP,2013-12-18 01:46:00,
2013-12-17 19:51:00,28.6,21.3,30.07,West,270,1.6,4.5,74,0.00,,,0.02,WUHU21623XXSP,2013-12-18 01:51:00,
2013-12-17 19:56:00,28.6,21.3,30.07,West,270,0.0,4.5,74,0.00,,,0.02,WUHU21623XXSP,2013-12-18 01:56:00,
2013-12-17 20:01:00,28.8,21.5,30.08,WSW,247,0.0,0.0,74,0.00,,,0.02,WUHU21623XXSP,2013-12-18 02:01:00,
2013-12-17 20:06:00,28.8,21.8,30.07,WSW,247,0.0,4.5,75,0.00,,,0.02,WUHU21623XXSP,2013-12-18 02:06:00,
2013-12-17 20:11:00,28.8,21.8,30.07,West,270,0.0,4.5,75,0.00,,,0.02,WUHU21623XXSP,2013-12-18 02:11:00,
2013-12-17 20:17:00,28.6,21.6,30.07,West,270,10.3,10.3,75,0.00,,,0.02,WUHU21623XXSP,2013-12-18 02:17:00,
2013-12-17 20:21:00,28.6,21.6,30.08,WSW,247,0.0,10.3,75,0.00,,,0.02,WUHU21623XXSP,2013-12-18 02:21:00,
2013-12-17 20:27:00,28.2,21.3,30.07,West,270,0.0,3.1,75,0.00,,,0.02,WUHU21623XXSP,2013-12-18 02:27:00,
2013-12-17 20:32:00,28.2,21.3,30.07,West,270,0.0,0.0,75,0.00,,,0.02,WUHU21623XXSP,2013-12-18 02:32:00,
2013-12-17 20:37:00,28.2,21.3,30.08,West,270,0.0,0.0,75,0.00,,,0.02,WUHU21623XXSP,2013-12-18 02:37:00,
2013-12-17 20:42:00,28.2,21.3,30.07,West,270,0.0,2.5,75,0.00,,,0.02,WUHU21623XXSP,2013-12-18 02:42:00,
2013-12-17 20:47:00,28.0,21.1,30.07,WSW,247,0.0,2.5,75,0.00,,,0.02,WUHU21623XXSP,2013-12-18 02:47:00,
2013-12-17 20:52:00,28.0,21.1,30.08,West,270,5.8,5.8,75,0.00,,,0.02,WUHU21623XXSP,2013-12-18 02:52:00,
2013-12-17 20:57:00,27.7,21.4,30.08,West,270,0.0,5.8,76,0.00,,,0.02,WUHU21623XXSP,2013-12-18 02:57:00,
2013-12-17 21:02:00,27.7,21.1,30.08,WSW,247,0.0,0.0,76,0.00,,,0.02,WUHU21623XXSP,2013-12-18 03:02:00,
2013-12-17 21:07:00,27.7,21.1,30.08,West,270,0.0,0.0,76,0.00,,,0.02,WUHU21623XXSP,2013-12-18 03:07:00,
2013-12-17 21:12:00,27.5,20.9,30.08,West,270,1.1,1.1,76,0.00,,,0.02,WUHU21623XXSP,2013-12-18 03:12:00,
2013-12-17 21:17:00,27.3,20.7,30.08,WSW,247,0.0,1.1,76,0.00,,,0.02,WUHU21623XXSP,2013-12-18 03:17:00,
2013-12-17 21:22:00,27.3,20.7,30.08,WSW,247,0.0,0.0,76,0.00,,,0.02,WUHU21623XXSP,2013-12-18 03:22:00,
2013-12-17 21:27:00,27.3,20.7,30.08,WSW,247,0.0,0.0,76,0.00,,,0.02,WUHU21623XXSP,2013-12-18 03:27:00,
2013-12-17 21:32:00,27.1,20.8,30.08,WSW,247,0.0,6.3,77,0.00,,,0.02,WUHU21623XXSP,2013-12-18 03:32:00,
2013-12-17 21:37:00,27.3,21.0,30.08,West,270,0.0,6.3,77,0.00,,,0.02,WUHU21623XXSP,2013-12-18 03:37:00,
2013-12-17 21:42:00,27.3,21.0,30.08,West,270,0.0,0.0,77,0.00,,,0.02,WUHU21623XXSP,2013-12-18 03:42:00,
2013-12-17 21:47:00,27.7,21.4,30.08,WSW,247,3.1,3.1,76,0.00,,,0.02,WUHU21623XXSP,2013-12-18 03:47:00,
2013-12-17 21:52:00,28.6,21.3,30.08,NW,315,10.7,10.7,75,0.00,,,0.02,WUHU21623XXSP,2013-12-18 03:52:00,
2013-12-17 21:57:00,28.6,21.6,30.09,WNW,292,6.9,10.7,75,0.00,,,0.02,WUHU21623XXSP,2013-12-18 03:57:00,
2013-12-17 22:02:00,28.6,21.3,30.09,West,270,0.7,6.9,74,0.00,,,0.02,WUHU21623XXSP,2013-12-18 04:02:00,
2013-12-17 22:07:00,28.6,21.3,30.09,West,270,0.0,6.9,74,0.00,,,0.02,WUHU21623XXSP,2013-12-18 04:07:00,
2013-12-17 22:12:00,28.6,21.3,30.09,WNW,292,6.5,6.5,74,0.00,,,0.02,WUHU21623XXSP,2013-12-18 04:12:00,
2013-12-17 22:17:00,28.6,21.3,30.09,West,270,0.0,6.5,74,0.00,,,0.02,WUHU21623XXSP,2013-12-18 04:17:00,
2013-12-17 22:22:00,28.4,21.2,30.09,West,270,1.1,1.1,74,0.00,,,0.02,WUHU21623XXSP,2013-12-18 04:22:00,
2013-12-17 22:27:00,28.4,21.3,30.09,West,270,5.4,5.4,74,0.00,,,0.02,WUHU21623XXSP,2013-12-18 04:27:00,
2013-12-17 22:32:00,28.4,21.2,30.10,West,270,3.4,5.4,74,0.00,,,0.02,WUHU21623XXSP,2013-12-18 04:32:00,
2013-12-17 22:37:00,28.2,21.0,30.10,WSW,247,0.0,5.4,74,0.00,,,0.02,WUHU21623XXSP,2013-12-18 04:37:00,
2013-12-17 22:42:00,28.2,21.0,30.10,West,270,0.0,5.4,74,0.00,,,0.02,WUHU21623XXSP,2013-12-18 04:42:00,
2013-12-17 22:47:00,28.2,21.0,30.10,WSW,247,0.0,2.5,74,0.00,,,0.02,WUHU21623XXSP,2013-12-18 04:47:00,
2013-12-17 22:52:00,28.2,21.0,30.10,WSW,247,0.0,2.5,74,0.00,,,0.02,WUHU21623XXSP,2013-12-18 04:52:00,
2013-12-17 22:57:00,28.0,21.1,30.10,West,270,6.3,7.8,75,0.00,,,0.02,WUHU21623XXSP,2013-12-18 04:57:00,
2013-12-17 23:01:00,28.0,21.1,30.10,West,270,1.3,7.8,75,0.00,,,0.02,WUHU21623XXSP,2013-12-18 05:01:00,
2013-12-17 23:03:00,28.0,21.1,30.10,WNW,292,5.8,7.8,75,0.00,,,0.02,WUHU21623XXSP,2013-12-18 05:03:00,
2013-12-17 23:08:00,27.9,21.1,30.10,West,270,0.0,6.7,75,0.00,,,0.02,WUHU21623XXSP,2013-12-18 05:08:00,
2013-12-17 23:13:00,27.7,20.8,30.10,NW,315,2.7,2.7,75,0.00,,,0.02,WUHU21623XXSP,2013-12-18 05:13:00,
2013-12-17 23:18:00,27.3,20.4,30.10,West,270,6.0,6.0,75,0.00,,,0.02,WUHU21623XXSP,2013-12-18 05:18:00,
2013-12-17 23:23:00,27.1,20.2,30.10,West,270,6.0,6.0,75,0.00,,,0.02,WUHU21623XXSP,2013-12-18 05:23:00,
2013-12-17 23:28:00,27.1,20.2,30.10,West,270,9.2,10.3,75,0.00,,,0.02,WUHU21623XXSP,2013-12-18 05:28:00,
2013-12-17 23:33:00,26.8,19.9,30.10,West,270,5.1,10.3,75,0.00,,,0.02,WUHU21623XXSP,2013-12-18 05:33:00,
2013-12-17 23:38:00,26.6,19.7,30.10,WSW,247,2.9,5.1,75,0.00,,,0.02,WUHU21623XXSP,2013-12-18 05:38:00,
2013-12-17 23:43:00,26.4,19.8,30.10,WNW,292,5.4,9.6,76,0.00,,,0.02,WUHU21623XXSP,2013-12-18 05:43:00,
2013-12-17 23:48:00,26.2,19.6,30.10,West,270,3.4,9.6,76,0.00,,,0.02,WUHU21623XXSP,2013-12-18 05:48:00,
2013-12-17 23:53:00,26.1,19.5,30.10,WNW,292,0.7,5.4,76,0.00,,,0.02,WUHU21623XXSP,2013-12-18 05:53:00,
2013-12-17 23:58:00,25.7,19.1,30.10,West,270,0.4,4.3,76,0.00,,,0.00,WUHU21623XXSP,2013-12-18 05:58:00,